Tracking 19170 objects as of 23-May-2018
HD Live streaming from Space Station
objects crossing your sky now

NOAA 16 DEB

Track NOAA 16 DEB now!
10-day predictions


NORAD ID: 41250
Int'l Code: 2000-055FA
Perigee: 837.9 km
Apogee: 903.7 km
Inclination: 99.1 °
Period: 102.2 minutes
Semi major axis: 7241 km
RCS: Unknown
Launch date: September 21, 2000
Source: United States (US)
Launch site: AIR FORCE WESTERN TEST RANGE (AFWTR)

Note: This is SATELLITE DEBRIS
aabbcc
Your satellite tracking list
Your tracking list is empty




NASA's NSSDC Master Catalog

Two Line Element Set (TLE):
1 41250U 00055FA  18141.00173084 +.00001423 +00000-0 +84369-3 0  9993
2 41250 099.0580 224.4848 0045377 343.8786 016.0937 14.08749256124922
Source of the keplerian elements: AFSPC